Weather History for Sidney, NE

Change the Weather History Date:

Wednesday, July 11, 2012

  Actual Average Record
Temperature  
Mean Temperature 77 °F 75 °F  
Max Temperature 93 °F 91 °F 107 °F (1954)
Min Temperature 60 °F 60 °F 47 °F (1951)
Degree Days  
Heating Degree Days 0 0  
Month to date heating degree days 0 0  
Since 1 June heating degree days 5 59  
Since 1 July heating degree days 0 0  
Cooling Degree Days 12 10  
Month to date cooling degree days 142 103  
Year to date cooling degree days 530 262  
Since 1 June cooling degree days 476 240  
Growing Degree Days 26 (Base 50)    
Moisture  
Dew Point 51 °F    
Average Humidity 52    
Maximum Humidity 84    
Minimum Humidity 19    
Precipitation  
Precipitation 0.00 in 0.09 in 1.21 in (2011)
Month to date precipitation 1.75 1.00  
Year to date precipitation 5.84 10.94  
Sea Level Pressure  
Sea Level Pressure 30.00 in    
Wind  
Wind Speed 12 mph (South)    
Max Wind Speed 21 mph    
Max Gust Speed 31 mph    
Visibility 10 miles    
Events      
T = Trace of Precipitation, MM = Missing Value Source: NWS Daily Summary

Daily Weather History Graph

Daily Weather History Graph

Search for Another Location

Airport:

Trip Planner

Search our weather history database for the weather conditions in past years. The results will help you decide how hot, cold, wet, or windy it might be!

Date:

Astronomy

Jul. 11, 2012 Rise Set
Actual Time 5:29 AM MDT 8:24 PM MDT
Civil Twilight 4:56 AM MDT 8:57 PM MDT
Nautical Twilight 4:15 AM MDT 9:39 PM MDT
Astronomical Twilight 3:26 AM MDT 10:27 PM MDT
Moon 12:06 AM MDT (7/11) 2:00 PM MDT (7/11)
Length of Visible Light 16h 00m
Length of Day
14h 55m
Last Quarter, 44% of the Moon is Illuminated
Jul 11
Last Quarter
Jul 18
New
Jul 26
First Quarter
Aug 1
Full
Aug 9
Last Quarter

Hourly Weather History & Observations

Time (MDT) Temp. Heat Index Dew Point Humidity Pressure Visibility Wind Dir Wind Speed Gust Speed Precip Events Conditions
12:53 AM 64.0 °F - 55.9 °F 75% 30.09 in 10.0 mi South 10.4 mph - N/A   Clear
1:53 AM 64.0 °F - 55.0 °F 73% 30.08 in 10.0 mi SSE 11.5 mph - N/A   Clear
2:53 AM 64.9 °F - 55.9 °F 73% 30.06 in 10.0 mi South 11.5 mph - N/A   Clear
3:53 AM 64.0 °F - 55.0 °F 73% 30.05 in 10.0 mi South 13.8 mph - N/A   Clear
4:53 AM 61.0 °F - 55.0 °F 81% 30.05 in 10.0 mi South 8.1 mph - N/A   Clear
5:53 AM 60.1 °F - 55.0 °F 83% 30.06 in 10.0 mi South 6.9 mph - N/A   Clear
6:53 AM 66.9 °F - 57.9 °F 73% 30.05 in 10.0 mi South 9.2 mph - N/A   Clear
7:53 AM 73.9 °F - 57.9 °F 57% 30.04 in 10.0 mi SSW 15.0 mph - N/A   Clear
8:53 AM 79.0 °F - 55.9 °F 45% 30.06 in 10.0 mi SSW 16.1 mph - N/A   Clear
9:53 AM 82.0 °F 81.4 °F 55.0 °F 39% 30.05 in 10.0 mi SSW 16.1 mph - N/A   Clear
10:53 AM 84.9 °F 83.2 °F 53.1 °F 33% 30.03 in 10.0 mi South 13.8 mph 24.2 mph N/A   Clear
11:53 AM 89.1 °F - 46.0 °F 22% 30.02 in 10.0 mi South 13.8 mph 26.5 mph N/A   Clear
12:53 PM 91.0 °F - 45.0 °F 20% 30.00 in 10.0 mi South 17.3 mph 24.2 mph N/A   Clear
1:53 PM 91.0 °F - 45.0 °F 20% 29.98 in 10.0 mi South 10.4 mph 20.7 mph N/A   Clear
2:53 PM 91.9 °F - 45.0 °F 20% 29.96 in 10.0 mi South 17.3 mph 25.3 mph N/A   Clear
3:53 PM 91.9 °F - 45.0 °F 20% 29.95 in 10.0 mi South 11.5 mph 18.4 mph N/A   Clear
4:53 PM 93.0 °F - 45.0 °F 19% 29.94 in 10.0 mi SSE 12.7 mph - N/A   Clear
5:53 PM 91.9 °F - 46.0 °F 21% 29.92 in 10.0 mi SSE 13.8 mph - N/A   Clear
6:53 PM 89.1 °F - 46.9 °F 23% 29.92 in 10.0 mi SSE 12.7 mph 20.7 mph N/A   Clear
7:53 PM 82.0 °F - 48.9 °F 31% 29.91 in 10.0 mi SSE 11.5 mph - N/A   Clear
8:53 PM 75.0 °F - 50.0 °F 41% 29.94 in 10.0 mi SSE 9.2 mph - N/A   Clear
9:53 PM 73.0 °F - 51.1 °F 46% 29.97 in 10.0 mi SSE 9.2 mph - N/A   Clear
10:53 PM 73.0 °F - 51.1 °F 46% 29.97 in 10.0 mi South 10.4 mph - N/A   Clear
11:53 PM 73.9 °F - 51.1 °F 45% 30.01 in 10.0 mi NW 16.1 mph 24.2 mph N/A   Clear